sat.trackr.live / text

‹ back to catalog

STARLINK-30580

NORAD 58115 · 2023-161U

PAYLOAD ACTIVE UNKNOWN

§ Identity

Operator
Country
US
Launch date
2023-10-21
Launch site
AFWTR
Launch vehicle
Mass (kg)
RCS (m²)

Purposes: comms

External: N2YO · Heavens-Above · Gunter

§ Orbital elements

Epoch: 2026-05-24T18:35:37.461696Z

Period
94.11 min
Inclination
53.1599°
Eccentricity
0.0001030
Mean motion
15.30193048 rev/d
Perigee alt
474.5 km
Apogee alt
475.9 km
Semi-major
6,853.4 km
B*
1.5433e-5
RAAN
171.8896°
Arg perigee
90.6782°
Mean anomaly
269.4337°
Rev number
14,606

§ Raw data

STARLINK-305801 58115U 23161U   26144.77473914  .00000098  00000+0  15433-4 0  99982 58115  53.1599 171.8896 0001030  90.6782 269.4337 15.30193048146065

JSON: /api/v1/satellites/58115 · /tle

For live sub-satellite position, see the globe view (requires WebGL).

§ Visibility from observer

Set your observer location to see the next 7 days of passes ≥ 10°. The values pass through the URL so the page stays shareable.

No JS? Fill the form by hand. The geolocation button needs JavaScript.